Other Public Products
Issued by NWS Grand Forks, ND

Home | Current Version | Previous Version | Graphics & Text | Print | Product List | Glossary On
Versions: 1 2 3 4 5 6 7 8 9 10 11 12 13 14 15 16 17 18 19 20 21 22 23 24 25 26 27 28 29 30 31 32 33 34 35 36 37 38 39 40 41 42 43 44 45 46 47 48 49 50
000
FPUS83 KFGF 140010
OPUFGF
PRAIRIE TO PINES WEATHER ROUNDUP
NATIONAL WEATHER SERVICE EASTERN NORTH DAKOTA/GRAND FORKS ND
700 PM CDT SUN JUL 13 2014

 **SATELLITE DATA USED TO AUGMENT SKY COVER AT AUTOMATED STATIONS**
 *****  WEATHER ACROSS EASTERN NORTH DAKOTA  *****

CITY           SKY/WX    TMP DP  RH WIND       PRES   REMARKS
GRAND FORKS    CLOUDY    65  47  52 NW12G20   29.92S
6HR MIN TEMP:  64; 6HR MAX TEMP:  72;

GRAND FORKS AF PTSUNNY   65  46  50 NW16      29.94R
GRAND CITY NWS   N/A     64 N/A N/A NW6         N/A
BUXTON         NOT AVBL
DEVILS LAKE    CLOUDY    64  45  48 NW21G29   29.97R
6HR MIN TEMP:  64; 6HR MAX TEMP:  72;

FARGO          PTSUNNY   71  46  40 NW22      29.91S
6HR MIN TEMP:  71; 6HR MAX TEMP:  77;

WAHPETON ARPT  PTCLDY    72  37  28 NW16G24   29.92S
$$

 *****  WEATHER ACROSS CENTRAL AND WESTERN NORTH DAKOTA  *****

CITY           SKY/WX    TMP DP  RH WIND       PRES   REMARKS
JAMESTOWN      PTSUNNY   69  44  40 NW22G29   29.97S
6HR MIN TEMP:  69; 6HR MAX TEMP:  74;

BISMARCK       SUNNY     74  41  30 NW22G28   30.04F
6HR MIN TEMP:  73; 6HR MAX TEMP:  76;

MINOT          PTSUNNY   67  45  45 NW21G30   30.04R
6HR MIN TEMP:  67; 6HR MAX TEMP:  72; 6HR PCP: TRACE;

MINOT AFB      MOSUNNY   70  46  42 N17       30.04R
6HR MIN TEMP:  69; 6HR MAX TEMP:  72;

GARRISON         N/A     71  45  39 NW23G30   30.05S
6HR MIN TEMP:  70; 6HR MAX TEMP:  73;

WILLISTON      SUNNY     76  35  22 NW20G29   30.11S
6HR MIN TEMP:  73; 6HR MAX TEMP:  79;

DICKINSON      SUNNY     73  37  27 NW20G30   30.09F
6HR MIN TEMP:  71; 6HR MAX TEMP:  75;

HETTINGER      SUNNY     75  40  28 N16       30.11F
6HR MIN TEMP:  73; 6HR MAX TEMP:  79;

$$

 *****  OTHER OBSERVATIONS NORTHEAST NORTH DAKOTA  *****

CITY           SKY/WX    TMP DP  RH WIND       PRES   REMARKS
WALHALLA         N/A     61  46  59 NW18G26     N/A
LANGDON        CLOUDY    59  46  63 NW13G22   29.96S
CAVALIER       MOCLDY    63  46  55 NW17G24   29.93S
GRAFTON        CLOUDY    63  46  55 N13G21    29.93R
CANDO          CLOUDY    63  46  55 N18G25    30.00S
FORT TOTTEN      N/A     65  48  55 N9        29.95S
ROLLA          CLOUDY    59  45  58 N17       30.02S
RUGBY          FAIR      64  48  55 N17G23    30.01R
 ***** THE ABOVE OBSERVATIONS ARE NON NWS ARE NOT QUALITY
        CONTROLLED AND MAY MIS-REPORT RAIN FOR SNOW...
$$

 *****  OTHER OBSERVATIONS SOUTHEAST NORTH DAKOTA *****

CITY           SKY/WX    TMP DP  RH WIND       PRES   REMARKS
COOPERSTOWN    NOT AVBL
VALLEY CITY    FAIR      70  46  43 N18G31    29.96R
OAKES          NOT AVBL
GWINNER        PTCLDY    73  45  35 NW21      29.96S
SHEYENNE NWR     N/A     73  44  35 NW10      29.95S
BUFFALO        NOT AVBL
WYNDMERE       NOT AVBL
 ***** THE ABOVE OBSERVATIONS ARE NON NWS ARE NOT QUALITY
       CONTROLLED AND MAY MIS-REPORT RAIN FOR SNOW...
$$

  *****  WEATHER ACROSS NORTHERN MINNESOTA  *****

CITY           SKY/WX    TMP DP  RH WIND       PRES   REMARKS
FLAG ISLAND    LGT RAIN  55  52  88 NW22G28   29.81S
WARROAD        PTSUNNY   57  52  82 W18G24    29.86F
ROSEAU         MOSUNNY   57  52  82 NW15G26   29.87F
HALLOCK        SUNNY     63  46  55 NW18G29   29.91S
THF RVR FALLS  CLOUDY    63  46  55 NW17      29.91F
6HR MIN TEMP:  59; 6HR MAX TEMP:  66;

HALSTAD          N/A     68  43  39 NW14        N/A
FOSSTON        CLOUDY    61  48  63 NW15G21   29.92R
BAUDETTE       CLOUDY    56  51  84 W9        29.85F
6HR MIN TEMP:  54; 6HR MAX TEMP:  64; 6HR PCP:  0.12;

WASKISH        CLOUDY    55  48  76 NW8G16    29.87F
CROOKSTON      CLOUDY    63  45  51 N13       29.93S
$$
  *****  WEATHER ACROSS CENTRAL AND WEST MINNESOTA  *****

CITY           SKY/WX    TMP DP  RH WIND       PRES   REMARKS
BEMIDJI        CLOUDY    62  46  56 NW21G26   29.89R
PARK RAPIDS    CLOUDY    65  47  52 NW16G24   29.89S
6HR MIN TEMP:  65; 6HR MAX TEMP:  72;

WADENA         MOSUNNY   66  46  48 NW17      29.89S
DETROIT LAKES  SUNNY     68  46  45 N17G23    29.92S
MOORHEAD       MOSUNNY   72  43  35 N15G22    29.92S
FERGUS FALLS   PTSUNNY   72  37  28 NW18G24   29.91R
ELBOW LAKE     MOCLDY    72  45  37 NW17G25   29.91F
MORRIS MN      SUNNY     72  45  37 NW13G24   29.92S
STAPLES        CLOUDY    66  45  45 NW10      29.90R
WHEATON        SUNNY     72  45  37 W13G23    29.94S
$$
  *****  WEATHER ELSEWHERE ACROSS MINNESOTA  *****

CITY           SKY/WX    TMP DP  RH WIND       PRES   REMARKS
DULUTH         PTSUNNY   66  47  50 W10       29.84S
6HR MIN TEMP:  58; 6HR MAX TEMP:  72; 6HR PCP: TRACE;

INTRNTL FALLS  CLOUDY    55  49  80 W9        29.83S
6HR MIN TEMP:  55; 6HR MAX TEMP:  66; 6HR PCP:  0.01;

ELY            LGT RAIN  55  52  88 NW8       29.83R
CLOQUET        CLOUDY    64  46  52 W7        29.86S
BRAINERD       CLOUDY    74  46  36 NW8       29.89R
6HR MIN TEMP:  73; 6HR MAX TEMP:  78;

HIBBING        CLOUDY    63  48  58 W9        29.84S
6HR MIN TEMP:  61; 6HR MAX TEMP:  71; 6HR PCP:  0.01;

ALEXANDRIA     SUNNY     72  42  34 W14       29.92F
6HR MIN TEMP:  70; 6HR MAX TEMP:  75;

SAINT CLOUD    SUNNY     75  44  33 NW13G20   29.89S
6HR MIN TEMP:  74; 6HR MAX TEMP:  78;

MINNEAPOLIS    MOSUNNY   75  47  36 NW15      29.88F
6HR MIN TEMP:  74; 6HR MAX TEMP:  78;

$$

  *****  WEATHER ACROSS SOUTH DAKOTA  *****

CITY           SKY/WX    TMP DP  RH WIND       PRES   REMARKS
SIOUX FALLS    SUNNY     80  59  48 NW14      29.96S
6HR MIN TEMP:  79; 6HR MAX TEMP:  83;

BROOKINGS      NOT AVBL
WATERTOWN      SUNNY     73  45  36 NW15      29.98S
6HR MIN TEMP:  73; 6HR MAX TEMP:  76;

HURON          SUNNY     77  47  34 N14       29.98S
6HR MIN TEMP:  77; 6HR MAX TEMP:  81;

SISSETON         N/A     74  43  32 N20G29    29.93S
ABERDEEN       SUNNY     75  41  29 NW18      29.98F
6HR MIN TEMP:  75; 6HR MAX TEMP:  78;

MITCHELL       SUNNY     80  52  37 N16       29.98S
PIERRE         SUNNY     78  55  44 N12       30.01F
6HR MIN TEMP:  78; 6HR MAX TEMP:  81;

MOBRIDGE       SUNNY     75  45  34 NW14G26   30.01S
RAPID CITY     CLOUDY    83  54  36 NE14      30.11S
6HR MIN TEMP:  79; 6HR MAX TEMP:  85;

$$

  *****  SOME WEATHER IN NEARBY STATES *****

CITY           SKY/WX    TMP DP  RH WIND       PRES   REMARKS
GLASGOW MT     NOT AVBL
GREAT FALLS MT NOT AVBL
CHEYENNE WY    MOSUNNY   76  51  41 CALM      30.30F
6HR MIN TEMP:  50; 6HR MAX TEMP:  80; 6HR PCP:  1.32;

SCOTTSBLUFF NE SUNNY     86  57  37 W6        30.14F
6HR MIN TEMP:  77; 6HR MAX TEMP:  88; 6HR PCP: TRACE;

OMAHA NE       PTSUNNY   82  67  60 W5        29.97F
6HR MIN TEMP:  81; 6HR MAX TEMP:  90; 6HR PCP: TRACE;

DES MOINES IA  MOSUNNY   84  62  47 N8        29.94F
6HR MIN TEMP:  78; 6HR MAX TEMP:  88; 6HR PCP: TRACE;

DAVENPORT IA     N/A     74  65  73 W7        29.93S
6HR MIN TEMP:  74; 6HR MAX TEMP:  82;

CHICAGO IL     PTSUNNY   81  62  52 W10       29.88R
6HR MIN TEMP:  81; 6HR MAX TEMP:  85;

EAU CLAIRE WI  MOSUNNY   73  50  44 W12G20    29.87F
6HR MIN TEMP:  72; 6HR MAX TEMP:  76;

LA CROSSE WI   SUNNY     77  50  38 NW8       29.89F
6HR MIN TEMP:  76; 6HR MAX TEMP:  80;

$$

  *****  SOME NATIONAL WEATHER *****

CITY           SKY/WX    TMP DP  RH WIND       PRES   REMARKS
LA GUARDIA NY  MOCLDY    77  69  76 S10       29.90S
6HR MIN TEMP:  76; 6HR MAX TEMP:  81; 6HR PCP: TRACE;

RALEIGH NC     PTCLDY    87  66  49 S7        30.02R


USA.gov is the U.S. government's official web portal to all federal, state and local government web resources and services.